Theta_e
360 360 358 358 358 359 359 360 360 360 361 361 361 363 363 366 368 368 368 367 367 365 364 363 364 364 365 364 363 361 360 359 357 356 355 353 352 350 349 349 349 348
360 360 359 359 359 360 361 361 361 361 362 363 363 363 366 367 368 368 367 367 366 365 365 363 364 363 365 363 362 360 359 358 356 355 353 353 352 351 349 349 348 349
360 360 359 358 357 358 357 360 361 362 361 362 364 365 365 366 366 368 368 367 366 364 363 363 363 362 362 364 363 360 358 357 355 353 352 352 351 350 350 347 347 349
361 360 359 358 358 358 359 359 360 361 361 361 361 362 363 364 365 366 367 367 366 366 364 363 363 362 362 362 362 359 359 357 356 355 352 352 351 350 349 349 347 347
360 360 360 360 360 361 361 360 358 359 359 359 361 363 364 364 365 364 365 366 366 365 363 361 362 362 362 361 361 360 358 356 355 355 352 351 351 350 349 348 348 345
361 362 362 361 361 361 360 359 359 358 359 358 360 361 363 364 364 363 364 364 363 362 362 362 361 361 361 361 360 359 358 356 355 353 351 351 350 349 348 348 347 346
359 360 360 361 361 361 360 360 360 360 359 360 362 361 362 361 362 363 364 364 363 362 362 362 362 362 363 360 359 359 358 357 355 353 351 351 351 349 348 348 347 347
359 360 360 360 360 360 360 359 360 360 361 362 360 362 362 361 362 363 364 364 363 363 364 363 363 363 363 362 359 359 357 356 355 353 351 351 350 350 348 347 348 347
359 359 359 360 359 359 358 358 359 360 361 360 360 360 362 361 362 362 363 364 363 364 365 365 364 364 364 362 360 360 357 356 354 353 351 350 349 349 349 348 347 347
359 359 358 357 357 358 357 358 358 359 360 360 359 359 359 361 362 363 364 364 363 363 364 365 364 363 362 361 360 360 359 357 355 353 352 351 350 350 349 348 347 346
357 358 357 357 356 357 357 357 357 358 359 359 359 358 359 361 361 363 363 363 361 362 363 363 363 363 362 360 360 359 359 357 355 354 353 352 351 351 349 349 347 347
357 357 356 357 357 357 357 357 357 358 358 359 359 358 359 359 360 360 361 362 362 362 363 363 364 363 362 361 359 358 357 357 356 354 352 352 352 351 350 350 348 348
356 356 357 357 358 358 358 358 357 357 358 358 359 358 358 358 358 360 360 361 362 362 361 362 363 363 362 361 360 358 357 356 355 354 352 351 351 350 350 349 348 348
356 357 358 359 359 360 359 359 358 358 359 360 360 358 357 358 357 358 360 360 361 361 362 362 363 362 362 362 360 358 356 355 354 353 352 351 350 350 349 348 348 347
358 359 360 360 360 360 359 359 359 359 360 360 360 359 358 358 359 358 359 359 360 360 361 361 360 360 361 360 359 358 356 354 354 353 352 351 350 348 348 347 347 347
360 360 360 361 360 360 360 360 359 360 359 360 360 360 360 360 360 360 358 358 358 359 360 359 359 360 348 336 340 357 357 354 353 353 352 351 350 348 347 346 346 346
358 359 360 359 359 359 360 360 360 360 360 361 360 360 360 361 360 359 358 358 358 358 358 358 358 356 336 330 331 335 352 355 353 352 352 351 350 349 347 346 346 346
357 358 359 359 360 360 360 361 360 360 360 360 360 360 360 361 360 360 360 359 358 358 357 358 358 340 331 328 328 328 335 354 353 352 350 350 349 348 348 347 346 345
359 359 359 359 359 359 360 361 360 360 360 360 359 360 361 360 360 360 359 360 359 358 357 357 358 337 329 326 326 326 327 339 353 353 351 349 349 349 348 347 347 346
359 358 357 358 359 360 360 360 359 359 359 359 360 360 359 359 359 360 360 360 359 359 358 358 358 337 326 324 324 323 324 333 353 352 352 350 350 349 348 348 348 347
359 358 358 359 360 360 360 359 359 359 359 359 359 359 359 358 357 359 359 359 359 358 359 357 357 332 324 322 321 320 321 327 351 352 352 351 351 350 349 349 348 347
358 358 359 360 359 359 359 358 359 360 359 360 359 359 360 359 359 360 359 358 359 358 357 356 358 329 323 321 319 318 320 338 348 351 351 350 351 350 350 350 349 348
359 359 359 359 359 359 359 358 359 359 361 362 359 359 358 358 358 359 360 360 359 358 357 357 358 336 321 318 317 317 323 342 346 349 350 350 350 351 350 350 349 350
360 360 359 359 359 358 358 358 359 361 361 361 359 358 357 358 359 358 359 360 359 357 358 357 357 339 317 316 316 315 327 344 346 348 349 349 348 350 351 350 349 343
359 359 358 358 358 359 359 359 359 360 361 361 360 360 359 360 359 358 358 359 360 359 343 352 358 341 317 317 315 314 329 347 348 348 348 348 348 348 350 350 350 344
359 359 359 358 359 359 360 360 362 361 361 361 360 360 359 360 358 357 357 358 358 358 358 358 358 360 334 315 314 313 320 347 350 348 347 347 349 347 346 346 346 347
Wind_Speed
13 12 13 12 12 11 11 12 11 12 11 10 11 11 11 10 10 11 11 10 10 11 12 11 11 11 8 8 8 7 6 7 6 6 6 6 6 7 6 6 6 5
16 14 12 12 11 10 11 12 12 12 11 11 10 10 9 9 10 10 10 11 10 11 12 12 11 12 9 8 8 8 7 6 7 5 6 7 6 6 6 7 7 6
16 15 15 15 14 15 16 13 12 11 11 11 10 9 9 9 10 10 10 10 10 11 11 12 12 12 11 9 8 8 7 7 8 7 7 7 6 6 6 7 6 7
17 17 16 17 15 15 14 12 12 11 11 10 12 11 10 9 10 11 10 11 10 10 10 12 12 12 12 12 10 8 8 8 8 7 7 6 6 6 6 6 6 5
18 17 16 15 15 14 13 13 15 13 13 13 11 10 10 10 10 11 11 11 11 11 10 13 13 12 12 11 12 9 8 8 8 8 7 7 6 6 6 6 6 7
16 16 16 15 14 14 13 14 15 14 15 14 13 11 11 11 11 12 12 12 12 12 12 12 13 13 13 12 11 10 8 8 8 9 9 8 7 7 6 6 7 7
17 16 17 15 15 15 15 15 14 14 13 13 11 12 11 12 12 13 13 12 13 12 13 12 12 12 11 12 12 10 9 9 9 10 10 8 8 8 8 7 7 7
19 17 16 16 17 16 16 15 14 13 13 12 13 12 12 13 14 13 12 13 13 13 13 13 12 13 12 11 11 10 12 10 9 10 10 9 9 9 9 7 7 8
17 17 17 18 19 17 18 17 15 15 14 14 14 13 13 13 13 14 13 13 13 13 13 12 13 13 11 10 10 11 11 10 10 11 11 11 11 10 10 9 8 8
18 17 19 19 19 17 18 19 17 15 15 15 15 13 13 13 14 14 13 13 13 13 13 13 13 12 12 11 12 12 11 11 11 11 11 12 11 11 10 10 10 9
20 19 19 20 20 18 20 20 19 16 14 16 15 15 15 13 13 13 13 13 13 14 14 13 13 13 13 12 11 11 12 11 11 11 12 12 12 11 10 10 10 11
20 20 20 21 21 20 21 20 18 17 16 15 16 17 16 15 14 13 13 14 14 14 14 14 13 13 13 13 13 12 11 11 11 11 12 12 11 11 11 11 11 12
20 20 20 20 19 18 17 17 18 18 18 17 16 17 17 16 15 15 13 14 15 14 15 14 14 13 12 12 12 12 12 12 11 12 11 11 11 11 11 12 12 12
19 20 18 18 17 16 17 17 18 17 17 16 15 17 18 17 16 16 14 14 14 14 14 13 13 13 12 12 12 12 12 12 12 11 12 11 10 11 12 13 14 14
16 16 15 16 16 16 17 17 17 16 16 15 15 15 15 17 16 16 15 15 15 14 14 13 13 13 12 12 12 13 12 13 13 12 12 11 11 12 12 13 13 13
15 14 15 16 16 16 17 17 16 16 16 16 16 16 15 14 15 15 16 16 15 15 14 13 13 12 14 17 15 12 13 11 11 12 12 11 11 12 13 14 13 12
14 15 14 16 17 16 16 17 17 16 16 16 16 16 16 15 15 16 16 15 16 16 16 14 13 13 18 17 18 17 12 12 12 12 12 12 13 13 13 12 12 13
15 15 16 17 16 17 16 17 17 16 16 16 16 17 16 15 16 16 15 15 14 16 17 15 14 16 18 18 19 19 15 12 11 11 12 13 13 14 11 11 13 13
14 15 16 16 17 17 16 16 17 17 17 17 18 17 15 16 16 16 16 16 16 16 17 16 14 16 18 19 19 19 19 15 11 12 13 13 14 14 13 13 12 11
15 16 17 17 16 16 16 16 17 18 18 17 15 15 17 19 18 18 16 17 17 16 14 15 16 15 19 19 19 19 19 17 11 13 13 14 14 13 13 14 13 12
15 17 17 16 15 15 15 16 17 16 17 16 16 16 17 18 21 20 18 19 20 19 15 15 16 15 20 21 20 20 20 18 13 13 13 13 13 14 14 14 14 13
17 17 16 15 16 16 16 17 17 17 17 15 14 15 16 16 18 17 18 20 20 20 19 20 16 17 20 21 21 20 21 14 14 14 14 13 13 13 13 13 13 13
16 16 16 15 15 16 17 18 18 17 16 13 15 15 16 20 20 17 16 18 18 22 22 18 18 16 21 21 21 22 18 13 14 15 16 14 13 13 13 13 13 13
13 13 13 14 14 17 19 18 17 15 15 15 16 17 17 18 17 17 18 20 20 23 20 18 19 16 23 22 23 25 21 15 13 14 17 16 15 13 11 12 14 16
14 15 16 17 17 18 17 17 17 17 16 14 16 16 17 15 15 17 19 19 18 21 18 20 20 17 23 23 25 25 20 13 13 14 18 16 15 15 12 11 11 13
14 15 16 17 19 17 16 17 15 14 15 16 16 15 14 15 16 18 18 17 19 19 17 17 20 14 17 25 26 26 27 15 12 14 18 19 17 16 15 15 16 15
Wind_Direction
199 198 200 201 204 204 203 201 205 207 208 207 207 208 207 204 194 195 198 200 207 219 225 226 224 222 205 199 195 197 202 202 203 193 197 198 208 211 206 200 205 212
202 200 199 202 204 201 202 202 203 205 209 208 211 210 206 198 196 197 199 201 202 215 225 226 224 224 207 199 191 197 199 193 199 189 193 195 204 205 210 206 209 204
200 201 201 202 205 207 209 208 207 207 210 212 210 211 209 203 203 200 203 203 205 212 220 225 227 226 220 203 188 197 199 190 195 191 190 196 198 198 209 209 208 198
202 203 204 206 208 207 204 204 203 206 210 211 211 211 209 207 202 201 202 199 204 204 214 223 225 224 225 219 208 201 199 194 194 183 186 189 193 200 202 203 209 201
201 203 204 206 206 204 199 202 207 206 208 213 212 207 205 202 201 207 204 203 204 207 211 222 223 226 225 221 212 206 196 194 185 183 188 190 187 191 202 198 202 207
200 202 202 203 202 199 200 205 207 208 209 211 209 204 205 204 207 210 209 207 205 207 209 213 219 222 222 220 214 209 195 195 187 181 189 194 193 190 194 192 200 206
198 198 202 203 205 204 205 207 206 207 209 210 206 207 204 205 206 209 209 208 208 206 207 206 211 215 212 217 214 201 198 192 182 180 188 193 191 189 193 187 196 203
200 201 202 203 206 207 206 207 206 205 207 205 208 205 202 206 207 208 208 208 207 206 204 203 204 211 202 199 206 200 211 209 198 182 187 194 192 194 189 188 190 199
198 200 199 201 203 205 207 208 208 207 204 206 209 212 207 209 210 209 207 205 207 206 204 201 202 205 202 197 198 196 197 195 189 186 189 194 195 197 190 185 189 197
196 199 200 202 205 207 208 209 209 208 204 207 208 210 209 207 210 209 206 204 206 207 207 204 202 204 202 199 197 197 196 190 186 188 194 198 198 196 190 185 192 195
200 199 201 204 207 207 209 209 210 209 206 206 206 211 211 207 207 208 208 206 208 209 208 207 205 203 203 202 199 198 197 193 186 187 195 200 201 195 187 186 190 199
199 200 204 204 205 207 208 207 208 208 207 205 205 209 209 210 206 205 207 209 210 211 210 208 207 205 203 201 200 195 194 194 189 190 196 199 200 196 188 189 194 198
197 200 203 203 202 203 205 205 207 208 208 208 205 208 209 210 211 208 207 208 210 210 211 209 207 207 204 201 198 194 191 191 193 192 195 198 200 197 194 195 199 199
197 200 200 200 199 198 200 203 205 207 209 208 205 207 210 212 212 209 208 206 209 210 212 209 208 209 207 202 197 193 191 192 192 192 195 195 195 195 198 201 202 202
193 196 196 195 194 194 197 201 204 205 206 206 206 207 210 213 212 211 209 208 208 209 210 209 210 211 209 200 195 194 194 194 193 194 194 191 191 195 200 204 203 205
189 189 193 192 192 196 198 199 203 205 205 205 205 205 208 209 213 212 212 208 205 208 209 210 211 212 207 197 192 192 192 192 189 193 195 193 190 196 203 203 202 202
191 196 194 196 197 200 200 200 202 203 206 207 208 207 209 209 209 212 213 212 210 209 210 212 213 212 203 192 195 193 190 188 185 189 193 193 193 197 202 198 199 203
194 192 194 197 196 198 198 198 201 204 206 206 206 207 206 208 211 212 214 214 215 215 215 215 217 211 196 193 193 194 193 192 190 191 192 196 200 202 200 191 195 200
189 190 194 196 197 197 197 197 200 205 207 206 208 207 206 207 211 212 214 214 215 215 217 217 222 202 192 191 193 190 191 196 202 195 194 198 201 200 195 191 193 200
189 193 198 200 196 194 195 198 202 207 209 209 209 207 213 217 214 213 215 217 217 217 216 220 224 199 187 189 190 186 185 193 206 198 199 200 200 195 192 193 197 201
191 195 199 197 193 193 195 201 204 209 209 209 209 208 211 214 219 216 217 223 224 224 219 221 226 193 183 187 187 181 182 190 206 209 204 203 201 197 193 196 201 204
192 196 197 193 192 193 197 202 205 206 206 204 208 213 215 218 221 215 215 221 223 226 226 231 226 189 183 184 181 177 175 189 202 209 209 202 203 199 196 201 203 204
194 196 195 193 192 194 200 203 205 206 206 202 209 214 215 221 223 217 215 219 216 225 223 226 235 192 182 178 176 172 171 193 197 209 217 207 204 199 200 203 203 203
192 193 193 193 196 202 204 206 206 206 206 200 207 211 215 218 220 225 225 224 219 224 218 218 230 200 179 175 175 173 178 187 192 201 215 214 216 207 200 207 209 204
193 193 196 197 201 206 205 205 205 205 204 201 209 212 216 216 217 223 226 224 222 225 215 217 228 206 177 175 175 175 181 188 189 203 214 214 213 212 207 207 211 204
192 192 195 199 204 205 204 207 205 204 203 204 207 210 213 215 220 225 226 226 227 227 226 215 222 216 177 177 174 175 182 184 191 198 212 213 213 215 213 218 221 220